STARLINK-11459, 62464

Orbit data source: Space-Track

STARLINK-11459, 62464 is a payload satellite owned by SpaceX/Seattle (US) in LEO that was launched on Tue, 31 Dec 2024 UTC via an FALCON 9 launch vehicle from the Air Force Eastern Test Range (AFETR). Payload-class satellites include a variety of spacecraft equipped with specific instruments for various scientific and technological missions. These include communications satellites like Starlink; space stations such as the ISS; scientific satellites like the Hubble; Earth observation satellites from companies like Planet Labs, Umbra, and HawkEye 360; GPS; miniature CubeSats for education and research; and military/defense satellites.

Loading next visibility...
Identifier
62464, 2024-254C
Orbit
LEO
Last TLE update
12 hours ago
Origin
Manufacturer
SpaceX/Seattle
Mission
Operational Commercial Communications
Bus & Motor
STARLINK V2M, Unknown motor
Mass
730 kg wet, ~700 kg dry
Launch date (UTC)
2024-12-31 (6 months ago)
Launch vehicle
FALCON 9
Launch site
Air Force Eastern Test Range (AFETR)
Object type
Payload
Rocket body
Debris
Shape & HBR
Box + 2 Pan, 29 m
Radar Cross Section
36.964 m², Large (>1 m²)

Expand to show TLE details & history

TLE from 12 hours ago
0 STARLINK-11459
1 62464U 24254C   25183.61771309  .00155270  00000-0  11889-2 0  9991
2 62464  42.9996 290.1353 0001962 286.7989  73.2663 15.70883196 30067
Epoch: 2025-07-02T14:49Z
TLE epoch observation values (Epoch: 2025-07-02T14:49:30.41Z)
Latitude
-0.00006°
Longitude
146.86229°
Altitude
355.763 km
Speed
7.698 km/s
True Right ascension
19h 20m 32s
True Declination
0° 00' 00"
Sunlit
Object was in full shadow at epoch
Visualization orbit readout
Latitude
-40.02099°
Longitude
80.30188°
Altitude
366.652 km
Speed
7.691 km/s
Apparent Right ascension
18h 56m 27s
Apparent Declination
-85° 48' 10"
Sunlit
Object is in full shadow
Visualization observer readout
Local Sidereal Time
14:29:10
Azimuth
175.091° S
Elevation
-38.159°
Doppler factor
1
Orbital elements
Apogee altitude
359.675 km
Perigee altitude
357.032 km
Semi-major axis
6,736.49 km
Eccentricity
0.0002
Inclination
42.9996°
RAAN
290.1353°
Arg. of periapsis
286.7989°
True anomaly
Unknown
Mean anomaly
73.2663°
Eccentric anomaly
Unknown
Mean motion
3.92548 °/min
Orbital period
91.71 mins
BSTAR
0.0011889
Loading maneuver chart data...
Loading SW <> Apogee altitude chart data...
Loading historical data...
Loading historical data...
Loading historical data...
Loading historical data...
Loading historical data...
Loading historical data...
Loading historical data...

STARLINK-11459 Visibility forecast

Observer location: undefined°, undefined°

Span
Click to sort rows by Start time (UTC) header in descending order
Start Az.
Max El. time (UTC)
Max El. Az.
Max El.
End time (UTC)
End Az.
5 mins2025-07-03 10:53:06.584Z234.656° WSW2025-07-03 10:56:06.584Z142.366° SSE38.881°2025-07-03 10:58:06.584Z81.165° E
4 mins2025-07-03 14:07:06.584Z303.994° NW2025-07-03 14:08:06.584Z341.678° N37.449°2025-07-03 14:11:06.584Z88.683° E
4 mins2025-07-03 15:43:06.584Z261.991° W2025-07-03 15:44:06.584Z227.946° WSW31.174°2025-07-03 15:47:06.584Z136.711° SSE
|